Showing default

GHOST-4, 59133

Orbit data source: Space-Track

GHOST-4, 59133 is a payload satellite owned by Orbital Sidekick (US) in SSO that was launched on Mon, 04 Mar 2024 UTC via an FALCON 9 launch vehicle from the Air Force Western Test Range (AFWTR). Payload-class satellites include a variety of spacecraft equipped with specific instruments for various scientific and technological missions. These include communications satellites like Starlink; space stations such as the ISS; scientific satellites like the Hubble; Earth observation satellites from companies like Planet Labs, Umbra, and HawkEye 360; GPS; miniature CubeSats for education and research; and military/defense satellites.

Loading next visibility...
Identifier
59133, 2024-043AM
Orbit
SSO
Country
Flag of USUS
Related business
Manufacturer
Astro Digital
Mission
Operational Commercial Imaging
Bus & Motor
CORVUS-XL, Unknown motor
Mass
85 kg wet, 85 kg dry
Launch date (UTC)
2024-03-04 (3 years ago)
Launch vehicle
FALCON 9
Launch site
Air Force Western Test Range (AFWTR)
Object type
Payload
Rocket body
Debris
Shape & HBR
Box + 1 Dish, 1.0 m
Radar Cross Section
0.425 m², Medium (>0.1 m² and < 1m²)

Expand to show TLE details & history
Last TLE update: 11 hours ago

TLE from 11 hours ago
0 GHOST-4
1 59133U 24043AM  26256.22823832  .00012008  00000-0  25206-3 0  9994
2 59133  97.5725  44.7515 0006400 256.4484 103.6052 15.45508268141127
Epoch: 2026-09-13T05:28Z
TLE epoch observation values (Epoch: 2026-09-13T05:28:39.790Z)
Latitude
-0.00001°
Longitude
-29.64019°
Altitude
434.033 km
Speed
7.651 km/s
True Right ascension
02h 59m 00s
True Declination
0° 00' 00"
Sunlit
Object was in full shadow at epoch
Visualization orbit readout
Latitude
Unknown
Longitude
Unknown
Altitude
Unknown
Speed
Unknown
Apparent Right ascension
Unknown
Apparent Declination
Unknown
Sunlit
N/A
Visualization observer readout
Local Sidereal Time
09:04:31
Azimuth
Unknown
Elevation
Unknown
Doppler factor
Unknown
Orbital elements
Apogee altitude
431.179 km
Perigee altitude
422.469 km
Semi-major axis
6,804.961 km
Eccentricity
0.00064
Inclination
97.5725°
RAAN
44.7515°
Arg. of periapsis
256.4484°
True anomaly
103.67647°
Mean anomaly
103.6052°
Eccentric anomaly
103.64083°
Mean motion
3.86638 °/min
Orbital period
93.11 mins
BSTAR
0.00025206
Loading maneuver chart data...
Computing Atmospheric mass density...
Loading historical data...
Loading historical data...
Loading historical data...
Loading historical data...
Loading historical data...
Loading historical data...
Loading historical data...

Documentation

Showing up to 5 results
|